User: anonymous   Login
Location: Unspecified
(0.0000°N, 0.0000°E)
Time: 02:50:47
(UTC+00:00)
Language:

BEESAT 4 - Orbit

View from above orbital plane
View from above orbital plane
View from above satellite
View from above satellite

Ground track
Ground track

The orbit data is extracted from the following two-line orbital elements,

1 41619U 16040W   17147.39832492 +.00001817 +00000-0 +85781-4 0  9992
2 41619 097.4639 209.9854 0013398 135.7091 224.5219 15.20664816039431
Epoch (UTC): 27 May 2017 09:33:35
Eccentricity: 0.0013398
inclination: 97.4639°
perigee height: 494 km
apogee height: 513 km
right ascension of ascending node: 209.9854°
argument of perigee: 135.7091°
revolutions per day: 15.20664816
mean anomaly at epoch: 224.5219°
orbit number at epoch: 3943

The dashed part of the orbit path shows where the satellite is in the earth's shadow,  

DLR